Charlevoix, MI

6:20 PM EST on December 14, 2017 (GMT -0500)
Charlevoix Municipal

Weather History for KCVX - January, 2013

Change the Weather History Date:

Monday, January 28, 2013

  Actual Average Record
Temperature  
Mean Temperature 30 °F -  
Max Temperature 33 °F 30 °F 42 °F (2008)
Min Temperature 28 °F 10 °F 2 °F (2015)
Degree Days  
Heating Degree Days 34    
Moisture  
Dew Point 29 °F    
Average Humidity 95    
Maximum Humidity 99    
Minimum Humidity 87    
Precipitation  
Precipitation 0.00 in - - ()
Sea Level Pressure  
Sea Level Pressure 29.92 in    
Wind  
Wind Speed 5 mph (East)    
Max Wind Speed 9 mph    
Max Gust Speed -    
Visibility 6 miles    
Events Snow    
Averages and records for this station are not official NWS values.
T = Trace of Precipitation, MM = Missing Value Source: NWS Daily Summary

Daily Weather History Graph

Daily Weather History Graph

Search for Another Location

Airport or City:

Trip Planner

Search our weather history database for the weather conditions in past years. The results will help you decide how hot, cold, wet, or windy it might be!

Date:

Astronomy

Jan. 28, 2013 Rise Set
Actual Time 8:05 AM EST 5:42 PM EST
Civil Twilight 7:34 AM EST 6:14 PM EST
Nautical Twilight 6:58 AM EST 6:50 PM EST
Astronomical Twilight 6:23 AM EST 7:25 PM EST
Moon 7:45 PM EST (1/28) 8:24 AM EST (1/28)
Length of Visible Light 10h 40m
Length of Day
9h 37m
Full, 98% of the Moon is Illuminated
Jan 28
Full
Feb 3
Last Quarter
Feb 10
New
Feb 17
First Quarter
Feb 25
Full

Hourly Weather History & Observations

Time (EST) Temp. Windchill Dew Point Humidity Pressure Visibility Wind Dir Wind Speed Gust Speed Precip Events Conditions
12:15 AM 28.4 °F 20.4 °F 27.0 °F 94% 30.03 in 3.0 mi SE 8.1 mph - N/A Snow Light Snow
12:34 AM 28.2 °F 21.0 °F 26.6 °F 94% 30.03 in 2.0 mi SE 6.9 mph - N/A Snow Light Snow
12:55 AM 28.2 °F 22.0 °F 27.1 °F 96% 30.02 in 1.8 mi ESE 5.8 mph - N/A Snow Light Snow
1:14 AM 28.4 °F 22.2 °F 27.5 °F 96% 30.01 in 4.0 mi ESE 5.8 mph - N/A Snow Light Snow
1:35 AM 28.8 °F 22.6 °F 27.9 °F 96% 30.00 in 2.0 mi SE 5.8 mph - N/A Snow Light Snow
1:54 AM 28.9 °F 23.9 °F 28.0 °F 96% 29.99 in 3.0 mi SE 4.6 mph - N/A Snow Light Snow
2:15 AM 29.1 °F 25.4 °F 28.0 °F 96% 29.97 in 1.8 mi ESE 3.5 mph - N/A Snow Light Snow
2:34 AM 28.9 °F 25.2 °F 28.0 °F 96% 29.97 in 4.0 mi ESE 3.5 mph - N/A Snow Light Snow
2:55 AM 28.8 °F 23.7 °F 27.9 °F 96% 29.96 in 3.0 mi ESE 4.6 mph - N/A   Overcast
3:14 AM 28.8 °F 25.0 °F 28.0 °F 97% 29.95 in 2.5 mi ESE 3.5 mph - N/A   Overcast
3:35 AM 28.8 °F 25.0 °F 28.0 °F 97% 29.94 in 2.5 mi ESE 3.5 mph - N/A   Overcast
3:55 AM 28.9 °F 23.9 °F 28.4 °F 98% 29.93 in 2.5 mi ESE 4.6 mph - N/A   Overcast
4:14 AM 28.9 °F 23.9 °F 28.4 °F 98% 29.92 in 3.0 mi ESE 4.6 mph - N/A   Overcast
4:35 AM 29.1 °F 25.4 °F 28.8 °F 99% 29.92 in 3.0 mi ESE 3.5 mph - N/A   Overcast
4:54 AM 29.1 °F 23.0 °F 28.8 °F 99% 29.90 in 2.5 mi East 5.8 mph - N/A   Overcast
5:15 AM 29.1 °F 23.0 °F 28.4 °F 97% 29.91 in 2.0 mi East 5.8 mph - N/A Snow Light Snow
5:35 AM 29.1 °F 22.1 °F 28.4 °F 97% 29.89 in 3.0 mi ESE 6.9 mph - N/A Snow Light Snow
5:54 AM 29.3 °F 21.5 °F 28.9 °F 99% 29.87 in 3.0 mi East 8.1 mph - N/A Snow Light Snow
6:15 AM 29.3 °F 22.3 °F 28.9 °F 99% 29.87 in 5.0 mi East 6.9 mph - N/A Snow Light Snow
6:34 AM 29.3 °F 22.3 °F 28.9 °F 99% 29.86 in 7.0 mi ESE 6.9 mph - N/A   Overcast
6:55 AM 29.7 °F 23.7 °F 29.1 °F 98% 29.87 in 5.0 mi ESE 5.8 mph - N/A   Overcast
7:15 AM 29.7 °F 23.7 °F 29.1 °F 98% 29.86 in 3.0 mi ESE 5.8 mph - N/A   Overcast
7:35 AM 30.0 °F 24.1 °F 29.3 °F 97% 29.85 in 2.5 mi ESE 5.8 mph - N/A   Overcast
7:55 AM 30.2 °F 24.3 °F 29.7 °F 98% 29.84 in 2.5 mi East 5.8 mph - N/A   Overcast
8:14 AM 30.2 °F 23.4 °F 29.8 °F 99% 29.83 in 1.8 mi East 6.9 mph - N/A Snow Light Snow
8:35 AM 30.6 °F 24.7 °F 30.2 °F 99% 29.84 in 2.0 mi ESE 5.8 mph - N/A Snow Light Snow
8:55 AM 30.6 °F 24.7 °F 30.2 °F 99% 29.83 in 2.5 mi East 5.8 mph - N/A Snow Light Snow
9:15 AM 30.7 °F 27.3 °F 30.2 °F 98% 29.83 in 1.8 mi ESE 3.5 mph - N/A Snow Light Snow
9:35 AM 30.7 °F 27.3 °F 30.2 °F 98% 29.83 in 1.2 mi East 3.5 mph - N/A Snow Light Snow
9:54 AM 30.7 °F 27.3 °F 30.4 °F 99% 29.82 in 1.2 mi East 3.5 mph - N/A Snow Light Snow
10:15 AM 31.1 °F 26.4 °F 30.7 °F 99% 29.83 in 1.8 mi East 4.6 mph - N/A   Overcast
10:35 AM 31.1 °F 27.7 °F 30.9 °F 99% 29.83 in 1.8 mi East 3.5 mph - N/A   Overcast
10:54 AM 31.5 °F - 31.1 °F 99% 29.84 in 1.8 mi Calm Calm - N/A   Overcast
11:15 AM 31.5 °F - 31.1 °F 99% 29.85 in 2.5 mi Calm Calm - N/A   Overcast
11:35 AM 32.0 °F - 31.8 °F 99% 29.85 in 1.5 mi Calm Calm - N/A   Overcast
12:15 PM 32.0 °F - 31.1 °F 96% 29.84 in 1.5 mi Calm Calm - N/A   Overcast
12:34 PM 33.1 °F - 32.4 °F 97% 29.84 in 2.0 mi Calm Calm - N/A   Overcast
12:55 PM 33.4 °F - 32.5 °F 96% 29.85 in 2.5 mi Calm Calm - N/A   Overcast
1:15 PM 32.5 °F 27.1 °F 32.0 °F 98% 29.86 in 3.0 mi NW 5.8 mph - N/A   Overcast
1:34 PM 32.0 °F 25.6 °F 31.1 °F 96% 29.85 in 3.0 mi North 6.9 mph - N/A   Overcast
1:55 PM 31.8 °F 25.4 °F 31.1 °F 97% 29.84 in 4.0 mi NNW 6.9 mph - N/A   Overcast
2:15 PM 31.6 °F 26.0 °F 31.1 °F 98% 29.85 in 4.0 mi North 5.8 mph - N/A   Overcast
2:34 PM 31.6 °F 27.0 °F 30.7 °F 96% 29.85 in 7.0 mi NNW 4.6 mph - N/A   Overcast
2:55 PM 31.6 °F 24.4 °F 30.2 °F 94% 29.87 in 10.0 mi NNW 8.1 mph - N/A   Overcast
3:15 PM 31.5 °F 23.5 °F 29.7 °F 93% 29.88 in 10.0 mi NNW 9.2 mph - N/A   Overcast
3:34 PM 31.5 °F 24.2 °F 29.8 °F 94% 29.89 in 10.0 mi North 8.1 mph - N/A   Overcast
3:55 PM 31.1 °F 24.5 °F 29.7 °F 94% 29.91 in 10.0 mi NNW 6.9 mph - N/A   Overcast
4:15 PM 31.1 °F 26.4 °F 29.5 °F 94% 29.92 in 10.0 mi NNW 4.6 mph - N/A   Overcast
4:34 PM 30.9 °F 24.3 °F 29.3 °F 94% 29.92 in 10.0 mi North 6.9 mph - N/A   Overcast
4:55 PM 30.9 °F 23.5 °F 29.1 °F 93% 29.94 in 10.0 mi North 8.1 mph - N/A   Overcast
5:15 PM 30.7 °F 23.3 °F 29.1 °F 94% 29.95 in 10.0 mi North 8.1 mph - N/A   Overcast
5:35 PM 30.2 °F 24.3 °F 28.4 °F 93% 29.95 in 10.0 mi North 5.8 mph - N/A   Mostly Cloudy
5:55 PM 30.7 °F 27.3 °F 28.8 °F 92% 29.96 in 10.0 mi NNE 3.5 mph - N/A   Overcast
6:14 PM 30.7 °F - 28.4 °F 91% 29.96 in 10.0 mi Calm Calm - N/A   Overcast
6:35 PM 30.9 °F - 28.6 °F 91% 29.96 in 10.0 mi Calm Calm - N/A   Overcast
6:55 PM 31.6 °F 27.0 °F 28.9 °F 90% 29.97 in 10.0 mi NNE 4.6 mph - N/A   Overcast
7:15 PM 31.8 °F 26.2 °F 28.4 °F 87% 29.97 in 10.0 mi North 5.8 mph - N/A   Overcast
7:35 PM 31.6 °F 28.3 °F 28.2 °F 87% 29.99 in 10.0 mi NNE 3.5 mph - N/A   Overcast
7:54 PM 32.0 °F - 28.4 °F 87% 30.00 in 10.0 mi Calm Calm - N/A   Overcast
8:15 PM 31.1 °F - 28.4 °F 90% 30.01 in 10.0 mi Calm Calm - N/A   Overcast
8:34 PM 30.9 °F 27.5 °F 28.4 °F 90% 30.01 in 10.0 mi SSE 3.5 mph - N/A   Overcast
8:55 PM 30.7 °F 26.0 °F 28.9 °F 93% 30.00 in 10.0 mi ESE 4.6 mph - N/A   Overcast
9:15 PM 30.7 °F 26.0 °F 28.8 °F 92% 30.00 in 10.0 mi ESE 4.6 mph - N/A   Overcast
9:34 PM 30.7 °F 26.0 °F 28.4 °F 91% 30.00 in 10.0 mi ESE 4.6 mph - N/A   Overcast
9:55 PM 30.6 °F 27.1 °F 28.6 °F 92% 30.00 in 10.0 mi ESE 3.5 mph - N/A   Overcast
10:14 PM 30.6 °F 27.1 °F 28.6 °F 92% 30.00 in 10.0 mi ESE 3.5 mph - N/A   Overcast
10:35 PM 30.7 °F 26.0 °F 28.4 °F 91% 29.99 in 10.0 mi ESE 4.6 mph - N/A   Overcast
10:55 PM 30.6 °F 27.1 °F 28.4 °F 92% 30.00 in 10.0 mi ESE 3.5 mph - N/A   Overcast
11:15 PM 30.4 °F 25.6 °F 28.4 °F 92% 30.00 in 10.0 mi SE 4.6 mph - N/A   Overcast
11:35 PM 30.4 °F 24.5 °F 28.2 °F 92% 29.98 in 10.0 mi East 5.8 mph - N/A   Overcast
11:54 PM 30.2 °F 25.4 °F 28.2 °F 92% 29.99 in 10.0 mi SE 4.6 mph - N/A   Overcast